Regional Weather Roundup
Issued by NWS

Home | Current Version | Previous Version | Text Only | Print | Product List | Glossary Off
Versions: 1 2 3 4 5 6 7 8 9 10 11 12 13 14 15 16 17 18 19 20 21 22 23 24 25 26 27 28 29 30 31 32 33 34 35 36 37 38 39 40 41 42 43 44 45 46 47 48 49 50

777
ASUS44 KLIX 300601
RWRLA
LOUISIANA WEATHER ROUNDUP
NATIONAL WEATHER SERVICE NEW ORLEANS LA
100 AM CDT THU OCT 30 2014

NOTE: "FAIR" INDICATES FEW OR NO CLOUDS BELOW 12,000 FEET WITH NO
      SIGNIFICANT WEATHER AND/OR OBSTRUCTIONS TO VISIBILITY.
      SKY/WX - SKY CONDITION AND SIGNIFICANT WEATHER.
      TMP - AIR TEMPERATURE.    DP   - DEWPOINT TEMPERATURE.
      RH  - RELATIVE HUMIDITY.  PRES - PRESSURE.
      HX  - HEAT INDEX.         WCI  - WIND CHILL INDEX.

*  THESE STATIONS ARE NOT NWS OR FAA STATIONS AND ARE NOT UNDER
   NWS QUALITY CONTROL.

LAZ040-048-061>063-065-066-069-300700-
SOUTHEAST LOUISIANA

CITY           SKY/WX    TMP DP  RH WIND       PRES   REMARKS
N.O. AUDUBON     N/A     70  62  77 MISG        N/A
6HR MIN TEMP:  69; 6HR MAX TEMP:  78;

N.O. INTL ARPT MOCLDY    69  54  58 NE17      30.07S
6HR MIN TEMP:  69; 6HR MAX TEMP:  76;

N.O. LAKEFRONT CLOUDY    69  57  65 NE20      30.08R
6HR MIN TEMP:  69; 6HR MAX TEMP:  77;

N.O. DOWNTOWN* CLOUDY    70  55  60 N8        30.08R
6HR MIN TEMP:  70; 6HR MAX TEMP:  79;

SLIDELL        MOCLDY    63  52  67 N6        30.07S
6HR MIN TEMP:  63; 6HR MAX TEMP:  74;

BATON ROUGE    PTCLDY    59  51  75 NE3       30.10S
6HR MIN TEMP:  59; 6HR MAX TEMP:  69;

BOOTHVILLE     CLOUDY    73  68  84 N12G18    30.04S
6HR MIN TEMP:  73; 6HR MAX TEMP:  75;

BELLE CHASSE   CLEAR     69  61  75 NE6       30.06R
6HR MIN TEMP:  69; 6HR MAX TEMP:  77;

BOGALUSA*        N/A     59  52  76 N5        30.11S
6HR MIN TEMP:  58; 6HR MAX TEMP:  73;

NEW ROADS*     FAIR      56  51  84 N3        30.11S
6HR MIN TEMP:  55; 6HR MAX TEMP:  65;

GONZALES*      FAIR      64  55  71 N6        30.08S
6HR MIN TEMP:  64; 6HR MAX TEMP:  73;

HAMMOND*       NOT AVBL
HOUMA*         CLEAR     64  63  94 N5        30.06S
6HR MIN TEMP:  64; 6HR MAX TEMP:  77;

PORT FOURCHON* CLOUDY    73  68  83 N10G16    30.07F

$$

LAZ041-044-053-054-300700-
SOUTHWEST LOUISIANA

CITY           SKY/WX    TMP DP  RH WIND       PRES   REMARKS
LAKE CHARLES   CLEAR     60  52  74 NE7       30.11F
6HR MIN TEMP:  60; 6HR MAX TEMP:  69;

LAFAYETTE      CLEAR     60  53  77 N7        30.10F
6HR MIN TEMP:  60; 6HR MAX TEMP:  70;

PATTERSON      CLEAR     64  61  88 N8        30.10S
6HR MIN TEMP:  64; 6HR MAX TEMP:  73;

SALT POINT       N/A     66  63  90 VRB3      30.07S
6HR MIN TEMP:  66; 6HR MAX TEMP:  75; 6HR PCP:  0.34;

NEW IBERIA     CLEAR     64  54  69 N8        30.10S
6HR MIN TEMP:  63; 6HR MAX TEMP:  70;

CHENAULT AIRPK CLEAR     59  53  81 N6        30.12S
6HR MIN TEMP:  59; 6HR MAX TEMP:  67;


$$

LAZ027-028-300700-
CENTRAL LOUISIANA

CITY           SKY/WX    TMP DP  RH WIND       PRES   REMARKS
FORT POLK      CLEAR     57  48  71 E2        30.12F
6HR MIN TEMP:  57; 6HR MAX TEMP:  64;

ALEXANDRIA INT CLEAR     49  47  93 CALM      30.11F
6HR MIN TEMP:  48; 6HR MAX TEMP:  61;

ALEXANDRIA     CLEAR     48  47  96 CALM      30.13F
6HR MIN TEMP:  48; 6HR MAX TEMP:  60;


$$

LAZ001-002-300700-
NORTHWEST LOUISIANA

CITY           SKY/WX    TMP DP  RH WIND       PRES   REMARKS
SHREVEPORT     CLEAR     51  47  86 CALM      30.14F
6HR MIN TEMP:  50; 6HR MAX TEMP:  65;

BARKSDALE AFB  CLEAR     50  49  97 CALM      30.14F
6HR MIN TEMP:  49; 6HR MAX TEMP:  64;

DTN SHREVEPORT CLEAR     51  49  92 CALM      30.15S
6HR MIN TEMP:  49; 6HR MAX TEMP:  65;


$$

LAZ014-016-300700-
NORTHEAST LOUISIANA

CITY           SKY/WX    TMP DP  RH WIND       PRES   REMARKS
MONROE         CLEAR     49  46  90 CALM      30.15F
6HR MIN TEMP:  47; 6HR MAX TEMP:  60;

TALLULAH       CLEAR     51  45  79 N6        30.14S
6HR MIN TEMP:  47; 6HR MAX TEMP:  62;


$$




USA.gov is the U.S. government's official web portal to all federal, state and local government web resources and services.